Skip Page Navigation
NASA JPL Caltech
NASA Logo - Jet Propulsion Laboratory + View the NASA Portal
+ Center for Near-Earth Object Studies
JPL Home Earth Solar System Stars & Galaxies Technology
JPL Solar System Dynamics
BODIES ORBITS EPHEMERIDES TOOLS PHYSICAL DATA DISCOVERY FAQ SITE MAP
JPL Small-Body Database Browser
Search: [ help ]  
351267 (2004 RT192)
Classification: Main-belt Asteroid          SPK-ID: 2351267
Ephemeris | Orbit Diagram | Orbital Elements | Mission Design | Physical Parameters | Discovery Circumstances | Close-Approach Data ]

[ show orbit diagram ]
Orbital Elements at Epoch 2459000.5 (2020-May-31.0) TDB
Reference: JPL 15 (heliocentric ecliptic J2000)
 Element Value Uncertainty (1-sigma)   Units 
e .2291004687822541 5.9489e-08  
a 2.405262073610861 1.2223e-08 au
q 1.854215405002436 1.4143e-07 au
i 4.093761227463504 5.9698e-06 deg
node 307.7219756700728 7.7402e-05 deg
peri 46.49403228322954 7.8983e-05 deg
M 81.18501419754122 1.1851e-05 deg
tp 2458693.233366580816
(2019-Jul-28.73336658)
4.4656e-05 TDB
period 1362.517320767511
3.73
1.0386e-05
2.844e-08
d
yr
n .2642168246325197 2.0141e-09 deg/d
Q 2.956308742219286 1.5024e-08 au
  Orbit Determination Parameters
   # obs. used (total)      330  
   data-arc span      5639 days (15.44 yr)  
   first obs. used      2004-08-11  
   last obs. used      2020-01-19  
   planetary ephem.      DE431  
   SB-pert. ephem.      SB431-N16  
   condition code      0  
   norm. resid. RMS      .48847  
   source      ORB  
   producer      Otto Matic  
   solution date      2020-Feb-25 23:54:07  

Additional Information
 Earth MOID = .851933 au 
 Jupiter MOID = 2.49689 au 
 T_jup = 3.484 
[ show covariance matrix ]

Ephemeris | Orbit Diagram | Orbital Elements | Mission Design | Physical Parameters | Discovery Circumstances | Close-Approach Data ]

Physical Parameter Table
Parameter Symbol Value Units Sigma Reference Notes
absolute magnitude H 17.2   n/a MPO503401  

351267 (2004 RT192)          Discovered 2004-Sep-10 by LINEAR at Socorro
Reference: 20130127/Numbers.arcLast Updated: 2013-01-31

[ hide close-approach data ]
Close-Approach Data   ...sorted by Date/Time (TDB)
Date/Time (TDB) Time Uncertainty
(days_HH:MM)
Body Nominal Distance (au) Minimum Distance (au) Maximum Distance (au) V-relative (km/s) V-infinity (km/s) JD (TDB) Time Uncertainty (minutes) Semi-major axis (km) Semi-minor axis (km) range-LOV angle (deg) N-sigma BP Orbit Ref. Reference Modified
1901-Jun-06 09:13 00:18 Europ 0.0239009448672705 0.0238645619122326 0.023937626562024 4.74790239721992 4.74790230355976 2415541.884186037 17.5372618272591 4591.54419075715 73.4047071972301 -66.6537645136552 44699.9705510009 T 15 CATAB v2.0f-lin.ifort 2020-Feb-25 23:54:09 2020-Feb-25 23:54
1962-Jul-22 15:23 00:31 Thisb 0.03538188361939 0.0353527722367565 0.0354109990750996 1.80659786907415 1.8065977624066 2437868.141103348 30.8750226762824 1567.86811176962 74.2475759251432 -22.505010410823 27389.3928553559 T 15 CATAB v2.0f-lin.ifort 2020-Feb-25 23:54:09 2020-Feb-25 23:54
1972-Apr-14 12:02 00:05 Europ 0.0391515718601054 0.0391410657145068 0.0391621052986654 4.84944657028116 4.84944651430149 2441422.001550865 5.36183232538832 1727.45520935559 74.2706997989228 72.4956412646593 75179.6602743687 T 15 CATAB v2.0f-lin.ifort 2020-Feb-25 23:54:09 2020-Feb-25 23:54
2040-Sep-18 21:28 00:37 Thisb 0.0257875836523576 0.0257724949997305 0.0258026738763184 1.64279999149796 1.64279983055224 2466416.394608539 36.9799681465835 814.603304975535 56.4302701545638 23.0052705683076 26980.9883907019 T 15 CATAB v2.0f-lin.ifort 2020-Feb-25 23:54:09 2020-Feb-25 23:54
2089-Mar-10 11:01 00:30 Hygie 0.0398181081678498 0.039770511810111 0.0398657259819201 3.28446334882427 3.28446305339235 2484120.959228185 30.4657313840968 2780.41844176911 91.0704583473099 31.5989077953773 34227.9566784858 T 15 CATAB v2.0f-lin.ifort 2020-Feb-25 23:54:09 2020-Feb-25 23:54
2099-Nov-18 07:16 00:59 Hygie 0.0428867218094089 0.0428755542543478 0.0428979021430642 3.00399737490099 3.00399707499852 2488025.802989728 58.6529097002837 1303.43847423073 92.5253077454633 65.1290772747528 62744.5351659329 T 15 CATAB v2.0f-lin.ifort 2020-Feb-25 23:54:09 2020-Feb-25 23:54
2122-Aug-11 09:35 00:13 Iris 0.0377062217127848 0.0376523747858232 0.0377602186527883 3.88939924568758 3.88939920648835 2496326.898988618 12.7827184689392 4613.41922524792 92.3052370102388 54.3942674468604 49660.7699483453 T 15 CATAB v2.0f-lin.ifort 2020-Feb-25 23:54:09 2020-Feb-25 23:54
Ephemeris | Orbit Diagram | Orbital Elements | Mission Design | Physical Parameters | Discovery Circumstances | Close-Approach Data ]
ABOUT SSD CREDITS/AWARDS PRIVACY/COPYRIGHT GLOSSARY LINKS
FirstGov 2020-Nov-01 02:25 UT
(server date/time)  
NASA Home Page
Site Manager:   Ryan S. Park
Webmaster  Alan B. Chamberlin